Wind_Speed
12 12 11 10 8 5 2 1 3 3 4 4 5 6 7 7 7 6 7 8 8 9 9 9 10 11 12 13 14 15 15 15 14 14 14 12 10 12 14 15 16 19 21 22 21 20 19 18 17
7 6 7 7 7 5 5 5 5 6 7 9 9 9 9 8 7 7 7 8 9 10 11 12 12 12 13 13 13 14 15 16 18 17 18 17 15 13 14 16 18 19 21 22 22 22 21 20 19
10 10 10 9 9 8 9 9 9 10 11 12 10 10 11 10 9 8 9 9 10 11 12 13 13 13 14 14 14 13 14 15 17 19 20 21 21 19 17 17 19 21 21 23 24 24 24 23 22
14 14 12 11 11 11 12 12 12 13 11 11 12 12 12 12 12 11 11 10 8 7 8 11 12 13 14 16 17 17 16 16 16 18 21 22 22 23 23 21 20 21 24 24 26 27 26 26 25
16 16 15 16 14 13 14 14 13 12 12 14 16 16 16 16 14 13 9 6 5 4 7 11 12 15 17 17 18 20 21 21 20 20 22 23 24 25 25 27 25 24 24 26 28 29 29 28 28
18 18 18 19 19 15 14 14 14 14 15 17 18 20 18 19 15 12 10 10 7 7 12 14 14 17 18 19 20 22 24 25 24 23 25 27 28 28 28 29 29 28 28 27 29 29 30 29 29
19 20 19 21 20 17 15 16 17 19 19 19 21 22 18 19 16 14 14 12 11 12 15 17 19 19 20 22 23 25 28 29 29 29 28 28 30 32 32 33 33 32 32 32 32 32 32 31 31
21 20 19 21 21 21 20 19 20 21 23 23 24 24 22 20 19 19 17 16 14 16 19 21 21 22 25 26 27 29 30 32 32 33 33 33 34 34 35 37 37 38 37 37 37 36 36 35 35
21 20 21 23 23 24 23 22 21 23 25 26 26 28 25 23 24 22 19 18 18 20 24 25 25 25 26 29 31 32 32 33 34 36 37 38 37 38 38 39 41 42 42 41 42 42 41 40 40
25 23 24 25 25 26 26 25 23 25 26 29 28 29 28 27 26 24 22 21 21 23 26 27 29 30 30 30 32 35 36 38 39 40 41 41 41 42 41 42 43 45 46 46 46 47 46 46 45
28 28 28 27 28 29 29 28 27 26 26 32 29 29 29 30 28 26 25 23 25 27 28 30 32 32 33 33 35 37 39 41 41 41 44 46 47 46 46 45 45 47 48 51 50 51 51 50 50
32 31 32 31 31 32 33 31 30 26 29 31 30 31 31 31 31 30 27 26 29 30 32 34 34 35 36 37 38 40 42 42 43 45 46 48 50 51 50 48 47 49 51 51 54 55 56 54 55
33 34 36 34 33 34 33 32 30 26 32 30 29 32 32 31 33 31 29 30 34 35 36 36 37 38 38 40 42 42 42 42 45 48 49 51 54 55 55 54 53 50 51 55 55 57 59 59 58
31 32 34 34 33 33 32 31 28 30 31 31 31 32 31 31 32 33 32 35 38 38 38 39 40 40 40 43 44 42 43 44 46 46 48 51 53 56 58 59 61 58 57 55 57 58 58 62 63
29 27 28 28 29 28 29 26 27 31 31 32 32 31 30 31 31 33 35 39 41 40 40 42 43 43 44 46 47 48 49 50 51 52 52 53 55 56 59 61 62 64 62 59 59 58 54 65 69
26 25 25 25 27 28 28 22 28 32 32 32 31 32 32 33 35 36 37 40 40 41 42 43 45 46 48 49 50 52 55 57 57 56 55 56 58 60 59 61 65 66 64 64 62 61 61 68 66
25 26 25 26 27 27 29 22 30 32 31 30 32 34 35 38 40 40 40 40 40 41 44 46 47 48 49 50 53 56 56 56 58 60 61 62 63 64 66 68 68 71 68 68 65 67 63 70 64
27 27 26 28 27 30 31 27 28 36 31 31 32 34 36 38 41 41 42 41 42 44 46 48 48 49 49 52 54 57 59 62 64 65 67 69 72 73 74 78 81 76 73 69 69 69 76 58 62
31 31 31 33 33 34 34 30 29 35 35 34 34 35 37 40 41 42 42 42 44 46 47 48 48 49 51 55 57 60 62 65 68 72 74 70 65 61 62 63 67 74 76 67 63 71 71 78 59
34 35 35 36 37 38 35 31 31 31 33 34 35 36 37 40 41 41 41 42 44 46 47 47 48 52 54 58 61 65 67 70 73 67 57 57 61 63 60 65 67 65 71 72 65 65 74 75 80
36 36 37 38 38 40 39 36 29 32 32 32 34 35 37 38 40 39 41 43 44 45 45 48 52 56 59 63 66 68 72 73 59 51 54 60 64 69 70 64 60 62 65 67 68 62 64 78 80
38 38 39 39 39 40 37 43 30 32 31 31 31 32 34 37 39 40 42 44 45 45 47 51 55 57 60 64 69 75 71 56 49 53 58 62 63 69 70 72 68 64 64 67 64 59 52 72 80
37 37 39 39 40 42 37 41 39 32 27 28 29 31 36 39 41 41 44 45 46 46 46 50 55 59 62 68 75 68 59 54 53 60 63 67 67 69 72 75 76 73 70 68 69 60 53 55 78
36 37 38 39 41 42 38 38 36 30 26 26 29 34 39 41 42 42 43 44 45 47 48 54 57 60 65 72 67 62 60 59 62 65 69 71 71 74 73 76 78 75 77 76 71 70 59 53 62
36 36 38 39 40 39 38 38 29 30 29 31 31 36 43 45 44 44 43 45 45 46 51 55 58 61 70 67 63 63 62 63 67 72 76 78 81 76 72 73 74 78 78 79 77 76 68 60 55
36 36 37 41 42 40 40 40 35 36 33 33 37 41 46 46 44 43 44 44 45 48 53 58 59 66 68 64 62 64 61 67 72 76 81 82 81 77 72 67 72 80 79 75 76 77 74 66 60
40 40 40 42 43 45 45 43 39 38 38 36 31 41 48 48 41 44 45 45 45 48 54 61 62 69 65 63 62 60 65 70 77 80 84 79 68 66 59 62 66 67 65 68 75 76 73 70 63
42 43 43 44 46 49 47 47 44 41 37 35 34 41 47 47 41 43 44 44 45 49 54 60 64 67 64 63 63 63 69 76 79 81 76 61 57 56 55 56 55 58 64 68 71 73 73 68 66
48 48 48 48 48 50 52 49 47 44 39 36 32 43 47 43 39 43 43 45 47 51 55 61 65 65 65 62 61 66 73 74 78 76 59 52 52 48 49 50 51 55 53 56 64 68 72 69 64
54 52 50 51 53 54 55 53 44 45 42 30 40 45 46 42 41 42 43 45 48 51 56 62 65 65 65 60 64 67 67 73 76 61 48 45 43 41 38 41 43 44 46 49 58 57 65 73 67
Wind_Direction
267 262 266 266 258 258 255 172 178 205 232 262 280 284 278 276 278 292 305 314 320 331 336 337 338 335 332 326 315 312 315 311 302 297 294 288 281 276 270 261 245 232 230 231 234 237 233 228 226
251 243 237 247 250 232 247 247 258 276 282 282 282 278 277 273 285 294 296 308 318 324 328 327 325 322 321 321 323 318 308 303 304 301 293 288 284 275 270 261 253 242 234 232 234 234 240 240 243
254 256 256 251 251 255 261 266 272 275 278 281 281 287 291 297 301 305 310 312 317 323 325 324 323 318 315 312 310 309 306 302 297 294 293 292 288 281 272 265 255 250 240 237 239 237 236 237 241
264 264 260 259 258 262 268 276 282 282 285 293 297 297 297 301 300 300 300 302 312 325 324 317 311 313 309 305 303 300 294 288 286 286 286 284 283 283 279 267 261 252 247 241 240 241 243 240 239
265 264 267 269 269 268 270 272 275 283 289 292 294 295 298 297 293 292 283 288 291 308 328 319 305 303 302 298 296 296 294 291 285 281 276 273 273 274 275 276 267 258 253 247 244 246 245 244 246
272 267 271 273 272 266 263 268 275 278 282 288 295 296 298 291 284 273 264 271 278 287 311 316 308 306 300 294 293 292 287 283 281 281 281 278 272 268 266 266 266 264 258 251 249 249 248 247 247
270 270 274 270 268 266 266 270 276 280 284 290 293 296 290 282 272 260 259 263 274 291 300 305 309 306 302 295 290 288 285 284 280 275 271 271 273 272 267 264 263 259 256 256 252 250 250 249 248
271 269 267 264 268 270 270 272 276 284 289 291 295 290 285 276 263 258 261 270 270 289 295 299 300 300 298 294 290 289 287 285 282 280 277 275 271 269 269 267 262 261 256 252 251 251 251 250 250
269 266 262 262 266 270 273 275 279 284 287 290 288 285 282 267 262 259 261 267 273 292 298 294 291 291 293 290 287 285 285 284 282 280 279 278 275 270 268 268 266 261 257 255 252 248 249 250 250
269 267 264 264 265 269 273 279 284 285 289 284 284 284 280 262 257 257 261 272 281 292 296 290 287 287 288 288 285 281 281 281 280 280 279 279 278 275 269 266 266 265 261 256 254 253 248 247 249
273 272 271 269 271 273 276 279 281 283 283 280 283 278 276 263 259 263 261 268 281 288 290 287 285 287 287 285 282 281 281 281 279 279 277 277 275 273 270 267 263 262 262 260 255 253 253 250 248
274 273 271 271 273 273 274 276 277 278 272 277 278 276 277 266 262 264 266 274 285 289 290 287 285 286 285 285 282 280 280 278 277 279 280 278 274 273 274 272 265 261 262 260 258 255 254 251 249
273 272 269 269 270 271 272 271 273 270 272 277 272 274 273 268 264 263 267 277 285 290 291 288 287 287 286 285 282 280 279 278 279 280 281 281 281 278 273 270 272 269 261 261 259 257 255 254 252
270 270 266 267 269 269 269 268 272 266 272 274 274 272 272 269 266 266 270 279 284 289 290 289 288 288 287 284 281 278 276 276 277 280 280 281 282 280 279 277 275 273 269 263 262 263 259 255 253
269 266 265 264 265 267 267 268 272 272 272 273 274 272 268 262 263 269 277 282 286 289 289 289 290 290 289 286 283 280 277 276 276 276 278 277 279 281 278 277 276 273 271 267 263 260 259 265 251
266 264 263 262 265 267 269 272 274 279 277 276 272 268 267 266 269 277 281 283 286 288 289 290 289 290 289 286 285 283 282 282 282 281 280 281 277 278 279 279 276 273 271 268 263 261 258 262 262
265 264 262 262 265 268 272 277 279 280 281 278 272 269 270 272 275 278 280 284 287 290 290 290 292 291 290 288 286 286 286 286 286 286 284 283 280 279 280 280 277 268 267 266 265 262 259 254 259
268 267 267 269 267 272 274 278 281 282 284 277 273 270 269 271 274 279 283 286 289 290 291 292 292 292 290 289 288 288 289 288 287 286 287 285 285 285 282 278 279 272 264 263 260 255 255 254 252
270 271 272 273 275 274 275 278 278 281 284 278 274 271 273 276 279 283 286 288 289 290 291 291 292 293 291 290 291 291 290 289 288 290 291 294 293 290 286 284 276 267 265 263 259 249 251 255 246
270 272 273 273 275 276 277 279 281 280 279 280 279 278 279 280 284 284 286 288 289 291 292 292 293 293 293 292 291 290 290 290 294 300 293 295 297 294 293 288 285 269 262 260 256 250 245 245 249
272 274 273 274 274 276 279 277 279 279 279 279 276 277 278 279 282 287 289 290 292 293 293 292 293 295 297 296 294 293 294 297 300 293 291 295 292 291 292 284 282 277 262 260 260 247 245 239 241
271 273 274 276 277 278 278 281 278 278 280 277 274 274 277 281 286 290 291 293 295 294 293 294 297 300 299 297 298 299 304 299 289 294 295 293 290 288 287 280 273 271 262 258 256 251 245 240 239
270 271 272 274 276 278 281 283 289 290 282 277 277 280 283 287 290 293 294 295 293 292 294 298 300 302 300 301 305 308 304 294 290 294 294 293 287 292 286 277 270 266 264 254 254 253 246 242 239
270 271 273 275 277 278 281 280 283 289 282 279 279 283 284 286 293 293 293 290 291 292 297 300 303 305 305 311 311 309 305 301 296 297 295 294 288 291 281 269 265 261 259 259 250 249 246 242 238
269 273 276 276 277 279 280 279 284 284 284 290 289 290 288 291 294 295 291 290 291 298 305 309 310 310 312 314 309 308 304 301 298 299 298 295 292 289 279 264 259 260 259 257 254 248 245 242 240
268 270 274 276 278 279 278 280 286 288 293 293 295 292 289 291 295 293 292 294 296 303 308 314 313 314 315 310 309 306 301 300 302 302 298 298 294 285 273 261 256 257 259 258 256 248 245 240 239
270 272 272 271 273 277 279 281 281 288 292 297 291 288 288 292 296 296 295 298 301 304 310 316 315 315 314 311 308 304 303 305 306 302 302 297 288 277 270 269 264 260 256 256 248 246 242 241 236
268 268 269 272 275 274 274 278 283 287 291 296 295 288 288 291 295 295 299 302 306 309 311 315 316 317 315 312 306 304 306 309 307 306 304 299 287 275 272 270 268 270 261 252 243 240 238 238 235
265 266 268 270 270 273 276 277 282 292 295 295 288 288 287 292 294 293 299 304 309 310 312 316 318 317 316 312 308 308 312 311 312 311 304 300 288 283 276 273 272 279 260 248 240 237 235 235 235
266 266 267 268 269 270 272 276 282 283 289 284 289 284 287 290 294 296 301 306 310 312 314 316 319 315 314 313 316 316 315 318 318 310 304 302 298 282 277 276 281 280 261 243 235 234 234 231 234
Height
5838 5838 5838 5838 5841 5839 5838 5839 5839 5839 5838 5839 5839 5839 5839 5838 5836 5838 5835 5834 5833 5833 5832 5832 5831 5831 5831 5830 5830 5829 5829 5828 5828 5828 5828 5828 5828 5828 5828 5829 5829 5829 5830 5831 5833 5835 5835 5836 5836
5836 5836 5836 5837 5839 5837 5837 5837 5837 5838 5838 5838 5837 5837 5836 5836 5835 5834 5834 5833 5832 5831 5831 5830 5830 5829 5829 5828 5829 5828 5827 5827 5827 5827 5826 5826 5827 5827 5827 5827 5827 5828 5829 5829 5830 5832 5834 5834 5835
5835 5835 5836 5836 5836 5836 5836 5836 5835 5835 5835 5836 5835 5835 5835 5835 5834 5832 5832 5832 5831 5830 5829 5829 5828 5828 5826 5825 5824 5824 5825 5825 5825 5824 5825 5825 5824 5824 5825 5825 5825 5826 5827 5828 5828 5828 5829 5831 5831
5833 5834 5834 5834 5835 5835 5834 5833 5833 5834 5834 5833 5833 5833 5833 5832 5830 5830 5830 5829 5828 5827 5826 5826 5825 5824 5823 5823 5822 5821 5821 5821 5820 5821 5821 5822 5821 5821 5821 5822 5823 5823 5824 5824 5825 5825 5827 5827 5828
5831 5831 5831 5831 5831 5832 5831 5831 5831 5832 5831 5831 5830 5830 5830 5829 5827 5827 5826 5826 5825 5825 5824 5823 5822 5821 5820 5820 5819 5819 5818 5818 5818 5818 5817 5816 5817 5817 5818 5818 5818 5819 5819 5820 5821 5822 5822 5823 5825
5829 5829 5829 5828 5828 5829 5828 5828 5828 5829 5828 5828 5828 5826 5826 5824 5824 5823 5823 5823 5823 5822 5821 5820 5819 5818 5817 5816 5815 5814 5814 5813 5813 5814 5814 5813 5813 5813 5813 5813 5814 5815 5815 5815 5816 5817 5817 5819 5820
5825 5825 5825 5825 5825 5825 5826 5825 5825 5825 5824 5824 5824 5823 5823 5820 5820 5820 5819 5819 5818 5818 5817 5816 5814 5814 5813 5812 5811 5810 5809 5808 5808 5807 5807 5807 5808 5808 5808 5808 5808 5810 5810 5811 5811 5811 5812 5813 5815
5822 5821 5822 5821 5821 5821 5822 5821 5821 5820 5819 5819 5819 5819 5818 5818 5816 5816 5816 5815 5814 5814 5813 5811 5810 5809 5808 5807 5806 5805 5805 5804 5804 5802 5802 5802 5802 5802 5802 5802 5802 5802 5803 5804 5806 5806 5806 5807 5808
5818 5818 5817 5818 5817 5817 5817 5816 5816 5815 5815 5814 5814 5813 5814 5812 5811 5812 5811 5811 5810 5809 5808 5807 5805 5804 5802 5801 5801 5799 5799 5798 5798 5796 5795 5794 5795 5794 5794 5795 5795 5795 5795 5797 5798 5799 5800 5801 5801
5814 5814 5813 5813 5812 5812 5811 5811 5811 5810 5810 5808 5808 5808 5808 5807 5806 5807 5807 5806 5805 5804 5802 5801 5799 5798 5796 5795 5794 5793 5792 5791 5790 5789 5788 5786 5785 5785 5785 5786 5786 5787 5788 5788 5789 5790 5791 5792 5794
5809 5808 5808 5808 5807 5807 5806 5805 5804 5804 5804 5801 5803 5802 5802 5802 5802 5801 5801 5801 5799 5798 5796 5795 5793 5791 5790 5788 5786 5784 5784 5782 5781 5780 5778 5777 5777 5774 5774 5775 5777 5776 5777 5779 5780 5780 5781 5784 5785
5802 5802 5801 5801 5801 5800 5800 5799 5798 5798 5795 5795 5795 5795 5795 5796 5796 5796 5795 5795 5793 5792 5790 5788 5786 5785 5782 5781 5779 5776 5775 5773 5772 5771 5769 5767 5766 5767 5766 5765 5764 5766 5766 5767 5769 5772 5771 5773 5775
5795 5795 5793 5794 5794 5793 5793 5792 5791 5791 5787 5789 5789 5787 5787 5788 5789 5789 5789 5788 5786 5784 5782 5781 5779 5777 5775 5772 5769 5767 5766 5765 5763 5760 5758 5756 5754 5754 5754 5754 5753 5755 5755 5755 5756 5758 5761 5763 5765
5787 5786 5786 5786 5786 5786 5786 5784 5784 5783 5782 5781 5782 5781 5781 5781 5781 5782 5782 5780 5778 5776 5774 5772 5771 5769 5767 5764 5761 5759 5757 5754 5752 5750 5748 5745 5743 5742 5741 5741 5741 5741 5743 5744 5746 5747 5748 5750 5754
5779 5779 5778 5779 5778 5779 5778 5780 5779 5776 5777 5776 5776 5775 5774 5774 5774 5773 5772 5770 5769 5767 5765 5763 5760 5758 5756 5753 5751 5749 5746 5744 5742 5740 5738 5735 5731 5730 5728 5727 5728 5727 5729 5731 5733 5735 5734 5735 5739
5773 5773 5772 5773 5772 5772 5771 5775 5772 5770 5770 5770 5770 5768 5768 5768 5766 5766 5764 5762 5761 5759 5756 5753 5750 5748 5744 5741 5739 5736 5733 5730 5727 5725 5723 5721 5719 5715 5714 5714 5715 5713 5713 5715 5717 5721 5723 5723 5717
5767 5767 5766 5765 5764 5764 5764 5768 5764 5763 5763 5763 5761 5762 5762 5760 5759 5759 5756 5755 5752 5749 5747 5743 5741 5737 5733 5731 5727 5723 5719 5715 5712 5709 5707 5705 5703 5701 5699 5697 5696 5697 5697 5696 5701 5702 5706 5705 5709
5761 5760 5759 5758 5760 5757 5758 5761 5759 5755 5758 5756 5755 5755 5754 5753 5751 5749 5747 5745 5743 5740 5736 5733 5730 5727 5723 5719 5715 5710 5706 5702 5697 5692 5688 5684 5682 5680 5679 5678 5676 5673 5676 5679 5680 5685 5687 5688 5696
5754 5753 5752 5751 5751 5751 5750 5753 5753 5750 5749 5749 5748 5747 5746 5744 5742 5740 5739 5736 5733 5730 5727 5723 5719 5715 5711 5706 5701 5696 5691 5686 5680 5674 5669 5665 5661 5657 5655 5656 5654 5652 5650 5657 5662 5664 5669 5676 5680
5747 5746 5746 5745 5744 5742 5743 5746 5744 5744 5743 5741 5740 5739 5737 5735 5733 5732 5730 5727 5723 5720 5716 5712 5707 5702 5698 5692 5686 5681 5674 5667 5660 5655 5650 5647 5642 5641 5637 5634 5634 5633 5632 5633 5638 5645 5651 5658 5662
5739 5739 5738 5736 5736 5734 5734 5736 5739 5735 5734 5734 5732 5730 5728 5726 5724 5723 5720 5717 5713 5709 5705 5701 5695 5689 5682 5676 5670 5662 5655 5649 5643 5638 5635 5631 5626 5624 5620 5617 5616 5614 5614 5616 5618 5621 5626 5637 5642
5732 5731 5729 5728 5728 5727 5729 5722 5732 5728 5727 5725 5724 5721 5719 5716 5715 5713 5710 5706 5702 5699 5694 5688 5682 5675 5668 5660 5652 5643 5636 5630 5625 5621 5619 5616 5612 5606 5600 5596 5594 5593 5594 5597 5600 5603 5604 5611 5621
5724 5723 5722 5720 5719 5717 5721 5717 5716 5718 5718 5717 5715 5713 5710 5707 5705 5703 5699 5696 5692 5688 5683 5677 5669 5661 5652 5643 5633 5625 5619 5614 5609 5605 5600 5596 5591 5586 5580 5575 5570 5569 5570 5575 5578 5584 5586 5591 5600
5714 5714 5713 5711 5709 5708 5710 5710 5710 5709 5708 5708 5707 5704 5701 5698 5696 5693 5689 5685 5680 5675 5669 5661 5653 5646 5636 5625 5616 5609 5602 5597 5593 5586 5580 5574 5568 5562 5554 5547 5544 5544 5547 5549 5556 5562 5568 5573 5582
5705 5704 5702 5702 5700 5701 5700 5699 5705 5702 5701 5699 5697 5694 5689 5687 5685 5681 5677 5673 5667 5660 5652 5645 5638 5630 5620 5612 5604 5596 5588 5581 5573 5564 5555 5546 5538 5533 5526 5520 5520 5520 5522 5526 5531 5537 5548 5556 5563
5697 5696 5695 5690 5691 5692 5692 5691 5694 5692 5692 5689 5688 5683 5678 5676 5674 5669 5664 5659 5654 5648 5640 5633 5624 5615 5607 5599 5591 5582 5573 5565 5556 5545 5531 5520 5508 5499 5493 5491 5493 5496 5497 5502 5506 5515 5525 5537 5546
5689 5688 5686 5682 5681 5678 5680 5683 5686 5682 5681 5679 5676 5672 5666 5663 5662 5657 5652 5647 5642 5636 5629 5622 5613 5604 5594 5585 5577 5567 5557 5545 5534 5520 5507 5492 5480 5472 5468 5469 5470 5471 5473 5478 5483 5491 5503 5514 5529
5676 5676 5676 5675 5671 5668 5669 5668 5670 5672 5670 5668 5665 5660 5655 5653 5652 5647 5642 5637 5630 5624 5617 5609 5601 5591 5581 5572 5562 5553 5540 5526 5512 5497 5480 5466 5458 5453 5451 5449 5449 5449 5449 5452 5459 5470 5483 5495 5510
5665 5664 5663 5663 5663 5659 5657 5662 5660 5660 5658 5656 5653 5647 5643 5643 5641 5636 5632 5626 5619 5613 5606 5598 5589 5579 5568 5559 5548 5536 5523 5508 5492 5473 5458 5446 5440 5435 5432 5432 5431 5425 5424 5430 5437 5450 5464 5479 5492
5652 5652 5652 5650 5651 5648 5646 5653 5656 5648 5648 5645 5640 5636 5633 5631 5628 5624 5620 5615 5609 5603 5595 5587 5577 5568 5557 5546 5534 5521 5506 5490 5470 5454 5443 5434 5427 5421 5418 5416 5414 5409 5406 5412 5421 5432 5446 5462 5477